Find Starlink 34221

NORAD ID: 64453 Int'l Des: 2025-130 Owner: SPXS Country: US Constellation: starlink operational
LEOCIRCULAR

Aktuelle Ansicht

3D-Globus wird geladen...

Über Starlink 34221

Beschreibung wird geladen...

Nächste Überflüge

Passes for default location (London). Set your location on the main map for personalized predictions.

Höhenverlauf

Loading altitude history...

Zweizeiliger Elementsatz

1 64453U 25130R 26149.01831341 .00029865 00000-0 89102-3 0 9999
2 64453 53.1598 74.5775 0001481 100.1748 259.9422 15.34417618 53017
Epoch: 29. Mai 2026 • Age: 28 hours

Aktueller Status

Höhe 478.7 km
Geschwindigkeit 7.63 km/s
Subsatellitenpunkt -45.75°S, 9.64°W
Startdatum 18. Juni 2025
Alter 0.9 years
Typ internet

Technische Details

Klassifizierung Payload
Masse 575.00 kg
Trockenmasse 530.00 kg
Gesamtmasse 575.00 kg
Länge 0.30 m
Durchmesser 4.10 m
Spannweite 29.00 m
Form Box + pan
Hersteller SPXS
Bus-Typ Starlink V2MO
Phasenstatus In Orbit
Besitzer/Staat SPXS/US

Most Searched